Tracking 19212 objects as of 16-Jul-2018
HD Live streaming from Space Station
objects crossing your sky now

CXBN-2

Track CXBN-2 now!
10-day predictions
CXBN-2 is classified as:


NORAD ID: 42704
Int'l Code: 1998-067LM
Perigee: 358.3 km
Apogee: 361.3 km
Inclination: 51.6 °
Period: 91.6 minutes
Semi major axis: 6730 km
RCS: Unknown
Launch date: November 20, 1998
Source: United States (US)
Launch site: TYURATAM MISSILE AND SPACE COMPLEX (TTMTR)
Uplink (MHz):
Downlink (MHz): 437.075
Beacon (MHz):
Mode: 9600bps FSK
Call sign:
Status:

aabbcc
Your satellite tracking list
Your tracking list is empty




NASA's NSSDC Master Catalog

Two Line Element Set (TLE):
1 42704U 98067LM  18196.46707498  .00021450  00000-0  16344-3 0  9990
2 42704  51.6337 211.1047 0002181 343.1335  16.9590 15.72187050 66372
Source of the keplerian elements: AFSPC